[[{"header":{"parameterUnit":"m.s-1","parameterCategory":1,"la1":30.2991,"la2":30.254,"lo1":-89.0895,"lo2":-89.0444,"dy":0.0017,"dx":0.0017,"nx":28,"ny":28,"refTime":"2025-05-29T03:00:00:Z","depth":0,"parameterNumber":2,"parameterNumberName":"U-component_of_WINDS"},"data":[0,0,0,0,0,0,0,0,0,0,0,0,0,0,0,0,0,0,0,0,0,0,0,0,0,0,0,0,0,0,0,0,0,0,0,0,0,0,0,0,0,0,0,0,0,0,0,0,0,0,0,0,0,0,0,0,0,0,4.1989,4.1991,0,4.2196,4.2198,4.2201,4.2216,4.2213,4.2211,4.2209,4.2414,4.2422,4.2429,0,0,0,0,0,0,0,0,0,0,0,0,0,4.1601,4.1608,4.1989,4.1991,4.1994,4.2196,4.2199,4.2201,4.2216,4.2213,4.2211,4.2208,4.2412,4.2421,4.243,0,0,0,0,0,0,0,0,0,0,0,0,0,4.1785,4.161,4.1988,4.2026,4.2031,4.2195,4.2199,4.2202,4.2217,4.2213,4.221,4.2207,4.2409,4.242,4.2431,4.257,0,0,4.2466,4.2471,0,0,0,0,0,0,0,0,4.1774,4.1799,4.2018,4.2024,4.203,4.2177,4.2137,4.2325,4.2218,4.2146,4.2209,4.2205,4.2338,4.2355,4.2401,4.2579,4.2588,4.2467,4.2474,4.2479,4.2482,0,0,0,0,0,0,0,4.1761,4.179,4.2071,4.2021,4.2028,4.2031,4.2053,4.2173,4.2258,4.2152,4.2154,4.2178,4.234,4.239,4.2406,4.2591,4.2467,4.2477,4.2484,4.2488,4.2894,4.2897,0,0,0,0,0,0,4.1742,4.1779,4.2064,4.2077,4.1891,4.204,4.2065,4.2133,4.2257,4.2273,4.2181,4.2178,4.2372,4.2392,4.2413,4.2583,4.2479,4.2489,4.2496,4.289,4.2895,4.2899,0,0,0,0,0,0,4.1734,4.1768,4.2056,4.1929,4.1966,4.2051,4.2126,4.2139,4.2188,4.2279,4.2294,4.2216,4.237,4.2397,4.2531,4.2591,4.2494,4.2505,4.2885,4.2891,4.2897,4.2925,0,0,0,0,0,0,4.1723,4.1765,4.1819,4.193,4.1972,4.2172,4.213,4.2145,4.2209,4.2207,4.2316,4.2331,4.2369,4.2514,4.2542,4.2605,4.2514,4.288,4.2888,4.2895,4.2919,4.2931,4.2942,0,0,0,0,0,4.1709,4.1818,4.1822,4.1856,4.2043,4.2176,4.22,4.2244,4.2214,4.2269,4.2327,4.2327,4.258,4.2528,4.256,4.2626,4.2877,4.2886,4.2894,4.2914,4.2929,4.2941,0,0,0,0,0,0,4.1709,4.1833,4.1839,4.1987,4.2071,4.2178,4.2249,4.2258,4.2351,4.2345,4.2394,4.2419,4.2551,4.2602,4.2542,4.2767,4.2725,4.274,4.2729,4.2744,4.2755,4.2739,4.2523,0,0,0,0,0,4.1727,4.1827,4.1928,4.2049,4.2091,4.2163,4.2222,4.225,4.2337,4.2372,4.244,4.2524,4.2622,4.2686,4.2781,4.2927,4.295,4.2988,4.3,4.3008,4.3021,4.3101,4.3119,4.2928,4.2928,4.2928,0,0,4.1764,4.1844,4.1903,4.2051,4.212,4.222,4.2192,4.2299,4.2374,4.2388,4.252,4.2572,4.2669,4.281,4.2875,4.2856,4.3079,4.302,4.3026,4.3034,4.3112,4.313,4.3146,4.2934,4.2933,4.2932,0,0,4.1882,4.1953,4.2062,4.2132,4.2236,4.2283,4.2309,4.2416,4.2452,4.2586,4.2598,4.2686,4.2855,4.2923,4.298,4.3125,4.3129,4.3155,4.3213,4.3291,4.3306,4.3319,4.337,4.3388,4.3167,4.3167,4.3167,0,4.1914,4.2068,4.2116,4.2224,4.2288,4.2308,4.2418,4.2482,4.2611,4.2655,4.2632,4.2845,4.2911,4.3068,4.3104,4.3149,4.3179,4.3142,4.33,4.3314,4.3327,4.3377,4.3396,4.317,4.3169,4.3169,4.3169,0,4.2102,4.2208,4.2283,4.241,4.2483,4.2591,4.2654,4.2721,4.2743,4.2791,4.2926,4.3007,4.3119,4.3159,4.3179,4.3319,4.3304,4.329,4.3248,4.3347,4.3394,4.3414,4.3173,4.3172,4.3172,4.3171,0,0,4.2225,4.2379,4.2406,4.2464,4.2581,4.2663,4.2772,4.2884,4.2941,4.3029,4.312,4.3263,4.3252,4.3316,4.3345,4.3413,4.3523,4.3391,4.3394,4.3412,4.368,4.3689,4.371,4.3526,4.353,4.3533,4.3672,0,4.2356,4.2552,4.2599,4.2766,4.2864,4.2885,4.2979,4.3061,4.3109,4.3198,4.3251,4.3351,4.3329,4.3368,4.3437,4.3495,4.3577,4.3486,4.3609,4.3613,4.3584,4.3735,4.3745,4.3872,4.3691,4.3694,4.3696,0,4.2535,4.2631,4.2808,4.2914,4.2956,4.3041,4.3147,4.3233,4.3325,4.3355,4.3428,4.345,4.3562,4.3515,4.3669,4.3606,4.3659,4.3695,4.3701,4.3713,4.366,4.375,4.3913,4.3932,4.3726,4.3723,4.3721,0,4.2607,4.278,4.2908,4.2957,4.3083,4.3142,4.3197,4.3286,4.3351,4.3443,4.3485,4.3588,4.3645,4.3723,4.3772,4.3734,4.3921,4.3879,4.3948,4.3947,4.3985,4.3982,4.4158,4.4021,4.4021,4.4021,4.402,0,4.2748,4.2856,4.2942,4.3021,4.3142,4.3194,4.3311,4.3366,4.3445,4.3534,4.3557,4.3639,4.3699,4.3789,4.3827,4.3948,4.3973,4.3999,4.4008,4.3997,4.3994,4.4032,4.4024,4.4026,4.4025,4.4024,4.4023,0,4.2848,4.2911,4.3052,4.3161,4.3191,4.3275,4.3367,4.3443,4.3493,4.3605,4.3634,4.3711,4.3818,4.3875,4.4008,4.4033,4.4169,4.4173,4.4138,4.4142,4.4207,4.42,4.4413,4.4444,4.4287,4.4289,4.429,0,4.2934,4.3017,4.3136,4.3198,4.3255,4.3354,4.3421,4.3475,4.3543,4.3655,4.3718,4.3827,4.3917,4.4086,4.4153,4.4254,4.426,4.4328,4.4275,4.4262,4.426,4.4254,4.4262,4.4337,4.4338,4.4339,4.434,0,4.3079,4.3106,4.3202,4.331,4.339,4.3476,4.3562,4.3611,4.3679,4.3754,4.3865,4.3935,4.4072,4.4179,4.4287,4.434,4.4351,4.4357,4.4378,4.4367,4.4343,4.4356,4.4163,4.4351,4.435,4.4349,4.4349,4.4348,4.3174,4.3249,4.3345,4.3451,4.3522,4.3602,4.3679,4.374,4.3834,4.3952,4.3977,4.4094,4.4184,4.4329,4.4386,4.4477,4.4463,4.4494,4.4501,4.4508,4.451,4.433,4.4497,4.4496,4.4496,4.4496,4.4496,0,4.3319,4.3382,4.348,4.36,4.3684,4.369,4.3785,4.3854,4.3958,4.4041,4.413,4.4257,4.4362,4.4437,4.4543,4.4601,4.4608,4.4627,4.4622,4.4634,4.4517,4.4488,4.4619,4.4619,4.4619,4.4619,4.4619,4.4619,4.3405,4.3533,4.3572,4.3734,4.3796,4.3913,4.3966,4.4039,4.4107,4.4249,4.4336,4.4386,4.4466,4.4578,4.4673,4.4692,4.4729,4.4747,4.4766,4.4656,4.4642,4.463,4.4603,4.4755,4.4755,4.4876,4.4877,4.4878]},{"header":{"parameterUnit":"m.s-1","parameterCategory":1,"la1":30.2991,"la2":30.254,"lo1":-89.0895,"lo2":-89.0444,"dy":0.0017,"dx":0.0017,"nx":28,"ny":28,"refTime":"2025-05-29T03:00:00:Z","depth":0,"parameterNumber":3,"parameterNumberName":"V-component_of_WINDS"},"data":[0,0,0,0,0,0,0,0,0,0,0,0,0,0,0,0,0,0,0,0,0,0,0,0,0,0,0,0,0,0,0,0,0,0,0,0,0,0,0,0,0,0,0,0,0,0,0,0,0,0,0,0,0,0,0,0,0,0,-2.6499,-2.6499,0,-2.6435,-2.6435,-2.6434,-2.6332,-2.633,-2.6328,-2.6327,-2.6252,-2.6252,-2.6251,0,0,0,0,0,0,0,0,0,0,0,0,0,-2.6518,-2.6518,-2.6499,-2.6499,-2.6498,-2.6435,-2.6435,-2.6434,-2.6332,-2.633,-2.6328,-2.6326,-2.6252,-2.6252,-2.6251,0,0,0,0,0,0,0,0,0,0,0,0,0,-2.6487,-2.6518,-2.65,-2.644,-2.6434,-2.6436,-2.6434,-2.6433,-2.6333,-2.633,-2.6327,-2.6325,-2.6252,-2.6252,-2.6251,-2.6303,0,0,-2.625,-2.625,0,0,0,0,0,0,0,0,-2.6489,-2.6487,-2.645,-2.6444,-2.6438,-2.6389,-2.6413,-2.6389,-2.6334,-2.6371,-2.6327,-2.6324,-2.6299,-2.6295,-2.6288,-2.63,-2.6297,-2.625,-2.625,-2.625,-2.6249,0,0,0,0,0,0,0,-2.6491,-2.6489,-2.6474,-2.6449,-2.6442,-2.6411,-2.6404,-2.6408,-2.6351,-2.6368,-2.636,-2.6354,-2.6295,-2.6289,-2.6286,-2.6295,-2.625,-2.625,-2.6249,-2.6249,-2.6334,-2.6336,0,0,0,0,0,0,-2.6504,-2.6491,-2.6476,-2.6472,-2.6457,-2.6413,-2.6405,-2.6407,-2.6351,-2.634,-2.6357,-2.635,-2.6291,-2.6287,-2.6283,-2.6335,-2.625,-2.6249,-2.6249,-2.6331,-2.6334,-2.6337,0,0,0,0,0,0,-2.6505,-2.6504,-2.6478,-2.6479,-2.6474,-2.6416,-2.6419,-2.6407,-2.6402,-2.6343,-2.633,-2.6362,-2.6289,-2.6284,-2.6297,-2.6331,-2.6249,-2.6249,-2.6328,-2.6332,-2.6336,-2.6444,0,0,0,0,0,0,-2.6506,-2.6505,-2.6529,-2.6481,-2.6474,-2.65,-2.6421,-2.6408,-2.6402,-2.6392,-2.6345,-2.6334,-2.6286,-2.6298,-2.6297,-2.6329,-2.6248,-2.6325,-2.633,-2.6335,-2.6437,-2.6451,-2.6463,0,0,0,0,0,-2.6507,-2.6562,-2.6531,-2.653,-2.6504,-2.6503,-2.6498,-2.6445,-2.6406,-2.6426,-2.6385,-2.6335,-2.6326,-2.6301,-2.6298,-2.6331,-2.6323,-2.6329,-2.6334,-2.6431,-2.6448,-2.6462,0,0,0,0,0,0,-2.6616,-2.6555,-2.652,-2.6562,-2.6538,-2.6486,-2.6512,-2.6466,-2.6451,-2.6443,-2.6373,-2.6363,-2.6384,-2.6357,-2.633,-2.6372,-2.6316,-2.6321,-2.6391,-2.6406,-2.6419,-2.6426,-2.6248,0,0,0,0,0,-2.6645,-2.6653,-2.6597,-2.6639,-2.6629,-2.6572,-2.6569,-2.6529,-2.65,-2.6489,-2.6451,-2.6421,-2.641,-2.6406,-2.6393,-2.6429,-2.6414,-2.6449,-2.6462,-2.6473,-2.648,-2.6489,-2.6502,-2.6356,-2.6356,-2.6356,0,0,-2.6705,-2.6672,-2.6683,-2.666,-2.6637,-2.6641,-2.6565,-2.6575,-2.6575,-2.649,-2.6502,-2.647,-2.6431,-2.6455,-2.6463,-2.6433,-2.6515,-2.648,-2.6489,-2.649,-2.6496,-2.651,-2.6522,-2.636,-2.6359,-2.6358,0,0,-2.6818,-2.6796,-2.6826,-2.6803,-2.6768,-2.6727,-2.6733,-2.6685,-2.6662,-2.6671,-2.6604,-2.6599,-2.6586,-2.6559,-2.6543,-2.6631,-2.6582,-2.6627,-2.6697,-2.6706,-2.6718,-2.6728,-2.6756,-2.6768,-2.6633,-2.6633,-2.6633,0,-2.6898,-2.6908,-2.6847,-2.6859,-2.6848,-2.6768,-2.6794,-2.6772,-2.6735,-2.6726,-2.6692,-2.6666,-2.6635,-2.6647,-2.6668,-2.6658,-2.6658,-2.6637,-2.6722,-2.6731,-2.6739,-2.6765,-2.6776,-2.6639,-2.6639,-2.6638,-2.6637,0,-2.7004,-2.701,-2.7037,-2.7003,-2.6993,-2.7013,-2.6949,-2.6945,-2.6901,-2.6861,-2.6866,-2.6823,-2.6797,-2.6795,-2.6754,-2.6799,-2.6781,-2.6735,-2.6678,-2.676,-2.6783,-2.6793,-2.6648,-2.6646,-2.6644,-2.6642,0,0,-2.7197,-2.712,-2.7131,-2.7111,-2.706,-2.7061,-2.707,-2.7046,-2.7042,-2.7013,-2.7017,-2.6999,-2.6954,-2.6935,-2.6887,-2.6895,-2.6962,-2.6847,-2.6845,-2.687,-2.7002,-2.7039,-2.7053,-2.6925,-2.6927,-2.6928,-2.7005,0,-2.7301,-2.7321,-2.726,-2.7292,-2.7292,-2.7209,-2.7215,-2.7181,-2.714,-2.7129,-2.7081,-2.707,-2.7012,-2.6999,-2.7003,-2.6954,-2.6988,-2.6946,-2.6924,-2.6924,-2.6941,-2.7065,-2.7107,-2.7183,-2.7014,-2.7015,-2.7016,0,-2.743,-2.7407,-2.744,-2.7379,-2.7376,-2.7385,-2.7352,-2.7344,-2.7298,-2.7266,-2.7241,-2.7183,-2.7179,-2.712,-2.711,-2.7084,-2.7068,-2.704,-2.7041,-2.7041,-2.6979,-2.7069,-2.7206,-2.7218,-2.703,-2.7029,-2.7028,0,-2.7566,-2.7542,-2.7558,-2.7542,-2.7472,-2.7478,-2.7448,-2.7399,-2.7385,-2.7353,-2.7341,-2.7308,-2.7291,-2.7262,-2.7193,-2.7157,-2.7189,-2.7126,-2.7159,-2.7161,-2.7176,-2.7177,-2.7315,-2.7161,-2.7161,-2.7161,-2.7161,0,-2.7691,-2.7715,-2.7617,-2.7628,-2.7646,-2.757,-2.7589,-2.7549,-2.7504,-2.7499,-2.7421,-2.7416,-2.7324,-2.7306,-2.725,-2.7248,-2.724,-2.721,-2.7196,-2.722,-2.7224,-2.7213,-2.7207,-2.7164,-2.7163,-2.7163,-2.7162,0,-2.7852,-2.7788,-2.7798,-2.7727,-2.7708,-2.7726,-2.7661,-2.7663,-2.7611,-2.7605,-2.7599,-2.7518,-2.7492,-2.7418,-2.7373,-2.7334,-2.7347,-2.7318,-2.7365,-2.7356,-2.7394,-2.7392,-2.7532,-2.7545,-2.7382,-2.7384,-2.7385,0,-2.794,-2.7955,-2.7883,-2.7875,-2.7848,-2.7836,-2.782,-2.7739,-2.7724,-2.7666,-2.7673,-2.7639,-2.7611,-2.757,-2.7504,-2.7465,-2.7436,-2.7486,-2.743,-2.745,-2.7436,-2.7438,-2.7437,-2.7502,-2.7504,-2.7506,-2.7507,0,-2.8101,-2.8065,-2.8048,-2.8015,-2.7997,-2.7968,-2.7933,-2.7928,-2.7837,-2.7821,-2.7795,-2.7771,-2.7721,-2.7687,-2.7636,-2.7596,-2.7535,-2.7523,-2.7529,-2.7557,-2.7583,-2.7568,-2.7401,-2.7523,-2.7521,-2.752,-2.7519,-2.7519,-2.8228,-2.8235,-2.8184,-2.8163,-2.8126,-2.8093,-2.8089,-2.8035,-2.8012,-2.7969,-2.7918,-2.7895,-2.7834,-2.776,-2.7722,-2.7697,-2.7666,-2.7675,-2.7677,-2.7682,-2.7692,-2.7582,-2.7687,-2.7686,-2.7686,-2.7685,-2.7685,0,-2.8385,-2.8346,-2.8327,-2.8279,-2.826,-2.8201,-2.8155,-2.8142,-2.8124,-2.8075,-2.8045,-2.8007,-2.797,-2.7896,-2.7851,-2.7844,-2.7814,-2.7835,-2.7837,-2.7827,-2.7723,-2.7723,-2.786,-2.786,-2.786,-2.786,-2.786,-2.786,-2.8466,-2.8474,-2.843,-2.8414,-2.8371,-2.8351,-2.8329,-2.8293,-2.8253,-2.8217,-2.8186,-2.8137,-2.8074,-2.8021,-2.7981,-2.7959,-2.7946,-2.7977,-2.7946,-2.7852,-2.7836,-2.782,-2.782,-2.7974,-2.7974,-2.8052,-2.8053,-2.8053]}]]